User: anonymous   Login
Location: Unspecified
(0.0000°N, 0.0000°E)
Time: 09:01:17
(UTC+01:00)
Language:

ASC 2 Rocket - Orbit

View from above orbital plane
View from above orbital plane
View from above satellite
View from above satellite

Ground track
Ground track

The orbit data is extracted from the following two-line orbital elements,

1 21228U 91028B   17019.44051583  .00000301  00000-0  60390-4 0  9999
2 21228  24.0022  26.7001 1142949 294.8813 234.7150 12.53296195179101
Epoch (UTC): 19 January 2017 10:34:20
Eccentricity: 0.1142949
inclination: 24.0022°
perigee height: 556 km
apogee height: 2345 km
right ascension of ascending node: 26.7001°
argument of perigee: 294.8813°
revolutions per day: 12.53296195
mean anomaly at epoch: 234.7150°
orbit number at epoch: 17910

The dashed part of the orbit path shows where the satellite is in the earth's shadow,  

DLR